Mather AFB, CA

7:42 PM PDT on June 28, 2017 (GMT -0700)
Mather

Weather History for KMHR - April, 2013

Change the Weather History Date:

Monday, April 1, 2013

  Actual Average Record
Temperature  
Mean Temperature 58 °F -  
Max Temperature 66 °F 65 °F 80 °F (2002)
Min Temperature 50 °F 41 °F 39 °F (2012)
Degree Days  
Heating Degree Days 7    
Growing Degree Days 8 (Base 50)    
Moisture  
Dew Point 50 °F    
Average Humidity 77    
Maximum Humidity 100    
Minimum Humidity 49    
Precipitation  
Precipitation 0.00 in - - ()
Sea Level Pressure  
Sea Level Pressure 30.12 in    
Wind  
Wind Speed 3 mph (SW)    
Max Wind Speed 16 mph    
Max Gust Speed -    
Visibility 10 miles    
Events Rain , Thunderstorm    
Averages and records for this station are not official NWS values.
T = Trace of Precipitation, MM = Missing Value Source: NWS Daily Summary

Daily Weather History Graph

Daily Weather History Graph

Search for Another Location

Airport or City:

Trip Planner

Search our weather history database for the weather conditions in past years. The results will help you decide how hot, cold, wet, or windy it might be!

Date:

Astronomy

Apr. 01, 2013 Rise Set
Actual Time 6:49 AM PDT 7:28 PM PDT
Civil Twilight 6:22 AM PDT 7:55 PM PDT
Nautical Twilight 5:51 AM PDT 8:27 PM PDT
Astronomical Twilight 5:18 AM PDT 8:59 PM PDT
Moon 12:39 AM PDT (4/1) 10:44 AM PDT (4/1)
Length of Visible Light 13h 32m
Length of Day
12h 39m
Waning Gibbous, 66% of the Moon is Illuminated
Apr 1
Waning Gibbous
Apr 2
Last Quarter
Apr 10
New
Apr 18
First Quarter
Apr 25
Full

Hourly Weather History & Observations

Time (PDT) Temp. Dew Point Humidity Pressure Visibility Wind Dir Wind Speed Gust Speed Precip Events Conditions
5:45 AM 50.0 °F 50.0 °F 100% 30.09 in 10.0 mi Calm Calm - N/A   Mostly Cloudy
6:50 AM 50.0 °F 50.0 °F 100% 30.10 in 10.0 mi Calm Calm - N/A   Mostly Cloudy
7:48 AM 53.6 °F 53.6 °F 100% 30.12 in 10.0 mi Calm Calm - N/A   Mostly Cloudy
8:55 AM 55.4 °F 51.8 °F 88% 30.14 in 10.0 mi Calm Calm - N/A   Mostly Cloudy
9:45 AM 59.0 °F 50.0 °F 72% 30.15 in 10.0 mi Calm Calm - N/A   Scattered Clouds
10:45 AM 59.0 °F 50.0 °F 72% 30.16 in 10.0 mi Calm Calm - N/A   Scattered Clouds
11:50 AM 60.8 °F 48.2 °F 63% 30.15 in 10.0 mi SW 3.5 mph - N/A   Mostly Cloudy
12:50 PM 62.6 °F 50.0 °F 63% 30.15 in 10.0 mi SSW 6.9 mph - N/A   Mostly Cloudy
1:50 PM 64.4 °F 48.2 °F 56% 30.13 in 10.0 mi West 4.6 mph - N/A   Mostly Cloudy
2:58 PM 66.2 °F 50.0 °F 56% 30.12 in 10.0 mi South 5.8 mph - N/A   Mostly Cloudy
4:46 PM 66.2 °F 46.4 °F 49% 30.10 in 10.0 mi Calm Calm - N/A   Mostly Cloudy
5:46 PM 64.4 °F 48.2 °F 56% 30.10 in 10.0 mi NNE 3.5 mph - N/A Rain Rain
6:04 PM 60.8 °F 51.8 °F 72% 30.10 in 6.0 mi SW 16.1 mph - N/A Rain , Thunderstorm Thunderstorms and Rain
6:46 PM 57.2 °F 50.0 °F 77% 30.11 in 8.0 mi South 10.4 mph - N/A Rain Light Rain
7:46 PM 57.2 °F 50.0 °F 77% 30.11 in 10.0 mi South 8.1 mph - N/A   Mostly Cloudy
8:46 PM 59.0 °F 51.8 °F 77% 30.12 in 10.0 mi West 3.5 mph - N/A   Mostly Cloudy
9:46 PM 55.4 °F 51.8 °F 88% 30.13 in 10.0 mi SSW 5.8 mph - N/A   Partly Cloudy
10:46 PM 53.6 °F 50.0 °F 88% 30.12 in 10.0 mi SSW 5.8 mph - N/A   Clear
11:46 PM 50.0 °F 50.0 °F 100% 30.12 in 10.0 mi Calm Calm - N/A   Clear